Location: Kergrach
(48.3833°N, 4.5167°W)
Time: 21:35:06
(UTC+00:00)

Cosmos 1802 Rocket - Pass Details

Date: 18 February 2020
Orbit: 955 x 1011 km, 82.9° (Epoch: 29 March)

Event Time Altitude Azimuth Distance (km) Brightness Sun altitude
Rises 05:52:07 0° 350° (N) 3,752 7.0 -15.4°
Reaches altitude 10° 05:54:40 10° 350° (N) 2,801 6.3 -15.0°
Maximum altitude 06:01:08 84° 264° (W) 1,023 4.0 -13.9°
Drops below altitude 10° 06:07:32 10° 176° (S) 2,779 6.5 -12.8°
Sets 06:10:03 0° 176° (S) 3,721 7.2 -12.4°
